Wind_Speed
31 32 32 28 28 28 27 25 18 7 9 21 13 27 27 29 29 26 26 25 22 19 15 14 15 14 10 8 7 5 4 5 6 8 9 10 11 12
30 33 33 32 30 31 31 28 28 15 5 20 27 21 26 27 29 28 27 24 24 20 18 16 17 14 12 10 9 7 7 7 8 9 10 11 12 13
31 31 33 34 31 32 32 30 28 24 8 13 22 19 27 27 27 27 27 25 23 21 19 18 16 14 13 12 11 9 9 9 9 10 11 12 12 13
32 34 33 32 34 34 35 33 32 32 19 14 20 23 24 27 26 28 26 25 23 23 20 18 15 14 13 12 11 12 12 12 13 13 11 12 12 13
37 37 36 35 37 34 38 36 35 32 32 19 12 20 24 25 23 26 25 23 22 19 20 18 16 15 14 14 13 13 15 14 13 13 12 10 9 11
37 38 39 37 37 40 36 38 33 33 28 25 16 22 22 27 24 24 21 23 23 20 20 18 18 17 16 15 15 16 15 14 14 13 10 10 11 13
35 38 42 44 45 46 40 37 33 31 27 25 16 19 18 27 29 26 22 21 19 23 20 21 19 19 17 16 17 16 15 15 14 12 10 11 12 14
32 34 39 42 45 49 49 45 43 36 28 24 21 22 24 26 25 30 23 19 9 21 22 18 18 17 16 15 13 15 15 15 14 12 11 12 13 16
31 30 34 37 44 44 45 43 39 40 41 38 33 32 26 35 33 28 27 25 15 16 25 18 19 18 15 15 18 17 17 15 12 12 13 14 15 17
30 32 33 32 39 37 37 34 32 37 37 34 32 36 31 31 35 32 29 23 14 15 22 9 17 14 13 18 15 15 15 12 13 13 14 14 16 18
28 30 30 30 33 35 33 30 27 26 32 32 30 23 25 20 29 29 30 26 7 10 22 11 12 11 14 15 15 15 14 13 12 13 14 16 17 17
29 27 25 25 24 28 30 32 25 25 28 28 20 16 16 24 31 31 34 27 15 6 17 15 12 10 3 10 15 13 15 14 13 14 16 17 17 16
24 22 19 21 19 27 28 31 34 33 28 26 26 28 27 29 28 24 26 29 22 6 14 20 13 11 7 3 6 11 13 15 15 16 16 15 15 16
25 22 18 19 21 23 28 24 26 31 30 30 28 26 27 29 26 24 22 19 15 8 15 21 7 13 8 4 5 6 10 13 17 17 17 17 18 19
24 19 17 18 19 22 20 23 32 31 32 27 24 22 25 30 26 23 19 16 12 12 15 15 11 11 12 8 3 6 9 7 15 18 11 18 23 25
9 11 13 22 26 24 26 26 24 24 25 26 25 27 30 26 23 21 19 16 15 11 10 11 11 11 11 11 13 17 15 10 10 19 17 20 25 27
10 19 24 24 22 24 24 25 25 24 26 28 29 27 26 24 22 20 17 16 10 12 12 11 11 11 12 13 16 19 19 17 17 19 19 20 27 30
17 15 13 16 19 21 23 24 27 27 29 30 28 27 25 23 21 18 17 15 12 13 12 10 9 6 7 11 16 21 17 16 15 16 19 21 24 31
10 12 13 15 16 18 19 22 20 25 26 21 21 24 23 22 21 19 17 15 12 12 11 11 10 9 4 2 5 11 14 13 14 20 23 21 25 30
12 14 14 16 18 19 21 22 22 23 23 23 23 23 23 23 20 18 17 15 13 12 11 11 11 12 11 3 4 10 11 16 18 21 27 25 27 31
13 14 17 19 21 23 23 23 25 24 24 24 23 23 22 22 19 17 16 13 12 12 12 12 11 8 12 12 8 13 16 12 17 23 27 24 26 26
14 15 18 20 21 23 23 23 22 21 22 22 21 20 19 18 18 17 16 16 14 12 9 6 8 8 8 9 13 16 19 23 20 21 21 23 25 13
14 16 18 17 18 19 20 20 20 20 20 19 19 18 18 18 17 16 15 13 11 11 8 8 9 9 10 12 15 18 21 23 22 26 30 23 24 29
Wind_Direction
214 215 214 214 214 213 204 206 190 186 198 208 195 210 209 214 212 209 210 210 211 210 208 207 208 218 228 239 238 246 253 277 292 297 305 308 312 314
218 221 216 216 213 212 205 207 211 204 197 194 201 204 201 209 211 209 208 210 211 213 216 217 218 227 230 235 239 247 253 270 291 298 302 306 308 311
231 227 223 213 209 209 201 206 211 212 202 160 186 202 195 198 205 204 205 211 210 213 217 222 223 226 230 235 240 240 248 270 287 296 300 306 308 308
228 227 225 220 212 206 207 208 207 210 200 157 169 183 192 197 201 195 203 210 210 215 216 222 222 225 230 236 239 243 254 265 277 289 294 301 306 307
234 231 232 223 217 210 208 211 209 209 213 195 160 183 181 186 189 194 201 201 206 215 213 214 214 219 232 237 240 248 256 267 279 284 291 294 297 301
232 231 230 224 217 214 204 211 208 202 202 186 178 162 169 182 183 180 189 201 200 208 213 217 218 226 229 237 243 250 258 268 275 280 278 277 292 303
237 233 232 230 222 223 206 207 200 196 186 161 155 160 161 172 186 188 187 186 197 209 207 212 215 222 232 239 244 251 258 262 272 268 261 281 291 300
236 233 230 225 221 217 210 210 198 189 188 178 170 170 181 185 182 181 179 168 190 211 207 209 217 223 233 242 248 244 254 266 268 244 264 285 295 298
239 232 227 223 219 214 211 209 203 205 207 196 182 185 175 194 188 179 184 187 187 188 196 199 219 227 227 227 238 248 260 263 247 242 271 291 294 295
232 226 220 217 215 206 204 209 205 202 205 203 210 208 213 206 202 197 182 168 167 175 184 182 202 215 219 238 244 253 258 231 228 252 278 289 290 291
226 224 217 213 214 209 197 192 194 191 202 206 202 205 213 214 195 177 166 159 145 177 186 181 195 204 216 236 249 259 221 230 241 278 284 291 289 288
226 226 226 229 221 210 193 184 172 187 191 194 191 194 199 195 190 199 186 168 151 141 199 188 189 191 220 243 226 238 228 245 268 271 285 287 287 284
211 210 219 225 217 205 199 196 194 191 181 176 162 157 161 162 174 184 184 186 172 134 186 192 188 195 206 202 237 218 228 244 256 271 283 282 282 290
214 215 227 232 217 210 203 205 200 178 163 153 145 146 150 160 165 165 171 180 186 187 181 192 172 196 195 201 239 227 242 263 273 278 285 287 293 297
228 218 223 219 203 187 190 192 166 165 155 145 144 142 150 160 156 153 156 158 155 156 177 193 213 213 214 213 227 240 292 279 271 280 285 297 302 308
217 201 199 178 178 179 162 160 163 159 151 146 140 144 156 153 153 157 155 156 151 149 179 205 216 223 223 240 254 264 268 270 278 290 294 300 307 309
161 147 145 150 150 151 149 152 152 149 141 145 146 149 152 158 161 168 166 160 163 178 197 208 217 229 239 245 252 263 274 271 279 292 299 300 307 308
152 144 148 157 159 157 152 148 154 155 156 158 158 159 155 155 157 165 168 176 167 174 184 200 218 240 278 275 256 259 261 267 282 287 294 291 290 308
157 157 160 164 159 154 151 151 148 158 161 165 169 160 156 158 157 162 173 173 173 182 195 202 207 214 236 250 284 251 265 275 279 292 296 290 287 291
168 158 156 153 147 146 149 152 157 169 167 162 159 161 162 161 164 169 174 171 173 177 193 209 216 218 224 242 288 257 260 278 286 286 294 300 295 297
156 154 156 156 155 157 157 158 160 158 158 156 158 162 169 172 174 175 175 181 180 183 195 210 236 232 235 250 269 283 306 293 284 285 294 291 294 297
162 159 161 164 165 164 162 162 156 154 156 160 166 175 181 179 175 176 177 180 188 197 204 209 224 235 239 246 270 283 294 304 303 300 285 280 282 286
161 164 166 174 176 175 174 166 162 164 166 169 172 177 177 172 181 182 182 182 188 199 205 227 241 249 255 266 277 285 289 296 302 306 310 311 297 295
Height
778 782 785 788 793 796 798 802 807 813 818 820 823 827 829 831 833 836 840 844 847 850 852 854 855 856 858 858 859 859 858 859 858 859 857 856 855 854
772 775 777 782 785 790 793 797 802 803 806 808 813 819 823 826 828 831 835 839 843 846 849 850 851 852 853 855 856 857 856 856 855 855 855 854 853 852
767 769 771 774 777 782 786 790 793 796 799 804 805 812 818 821 824 828 831 834 838 842 845 846 847 849 850 852 853 853 854 853 853 852 852 851 850 849
759 762 765 768 769 773 779 781 785 789 792 797 800 804 811 816 819 824 826 830 833 837 840 842 844 845 847 849 849 849 850 849 849 848 849 847 846 846
752 755 756 759 762 763 767 773 777 779 782 787 794 798 804 811 816 820 822 828 830 833 836 838 840 841 843 845 845 846 846 845 844 845 845 843 842 841
743 744 747 748 750 756 755 764 768 770 777 777 787 790 797 805 811 814 820 822 826 828 832 834 835 837 839 840 841 841 842 840 840 841 841 840 838 837
732 734 735 738 740 745 745 753 758 763 768 772 783 787 792 800 800 805 813 818 823 824 826 829 830 833 834 836 835 836 836 836 836 836 836 836 834 833
722 723 725 728 731 734 736 741 745 750 760 765 773 779 782 787 794 797 806 813 819 819 823 825 825 827 830 831 831 831 831 831 831 832 832 831 829 829
714 716 718 719 722 725 729 733 738 743 751 754 758 765 771 774 784 791 797 802 805 809 816 820 822 822 825 826 825 826 829 827 827 828 828 826 825 825
707 709 711 713 714 717 721 727 734 740 746 748 754 757 762 766 773 780 788 798 802 806 812 815 817 817 821 822 820 821 824 824 824 824 822 821 822 821
703 704 706 708 709 712 715 721 730 735 739 745 751 753 761 766 771 778 786 792 801 805 808 810 812 814 817 819 817 818 820 820 820 820 819 818 818 816
698 701 704 706 708 711 714 718 725 730 732 742 745 749 756 767 769 773 777 785 792 800 803 809 809 810 813 812 814 815 817 817 817 817 816 814 813 810
696 696 699 703 705 710 713 716 720 726 731 736 743 748 756 761 768 772 776 780 786 790 796 803 803 805 810 811 810 811 813 813 813 812 810 810 809 807
692 693 696 700 703 707 712 717 720 725 729 734 741 748 754 760 765 768 774 780 786 789 794 797 799 804 806 809 809 809 809 809 809 807 806 805 803 800
690 691 694 699 704 709 713 717 722 722 724 732 741 748 754 759 762 768 775 780 784 789 792 795 800 801 804 805 804 805 807 805 805 803 801 799 797 794
690 690 693 698 702 708 711 717 718 721 725 731 739 746 752 758 763 770 776 782 785 788 792 797 799 800 801 801 803 802 802 803 801 799 797 793 790 788
691 692 693 697 703 707 709 712 718 723 727 732 739 746 753 759 766 772 775 779 785 789 792 794 797 798 798 799 800 797 798 796 795 793 792 788 786 782
691 694 697 700 702 706 708 713 717 722 729 735 742 748 754 760 765 772 776 781 785 788 790 792 795 797 797 797 793 793 794 791 791 789 787 784 780 775
694 696 700 703 706 708 712 715 719 725 730 736 741 748 754 760 766 771 776 780 784 787 789 791 793 795 796 797 793 791 789 789 788 784 781 780 776 770
696 699 702 705 707 711 714 718 723 728 732 737 743 749 754 760 766 770 775 778 781 784 788 789 791 791 794 793 791 788 788 786 783 780 777 773 770 765
699 701 704 707 710 713 716 720 725 730 734 739 744 749 755 759 765 769 772 776 779 782 786 786 787 789 789 789 788 783 782 783 780 776 772 769 764 759
702 704 705 708 712 715 718 722 728 732 735 740 744 749 754 759 763 766 769 773 778 781 782 783 785 787 787 787 784 782 780 776 775 772 770 767 762 752
704 706 708 711 713 716 720 724 728 732 735 739 745 750 754 759 763 765 768 770 774 777 779 781 784 784 784 784 782 780 777 773 770 765 759 758 755 749